owner,sensor,date,latitude,longitude,vertical_datum,sea_water_practical_salinity,qcFlag 
SCCF RECON,ioos:station:SCCF:16:1,2008-11-04T19:00:00Z,26.4345,-81.9647,2.358,32.35,1111122 
SCCF RECON,ioos:station:SCCF:16:1,2008-11-04T20:00:00Z,26.4345,-81.9647,2.448,32.71,1111122 
SCCF RECON,ioos:station:SCCF:16:1,2008-11-04T21:00:00Z,26.4345,-81.9647,2.526,33.65,1111122 
SCCF RECON,ioos:station:SCCF:16:1,2008-11-04T22:00:00Z,26.4345,-81.9647,2.606,34.0,1111122 
SCCF RECON,ioos:station:SCCF:16:1,2008-11-04T23:00:00Z,26.4345,-81.9647,2.639,34.21,1111122 
SCCF RECON,ioos:station:SCCF:16:1,2008-11-05T00:00:00Z,26.4345,-81.9647,2.615,34.39,1111122 
SCCF RECON,ioos:station:SCCF:16:1,2008-11-05T01:00:00Z,26.4345,-81.9647,2.566,34.54,1111122 
SCCF RECON,ioos:station:SCCF:16:1,2008-11-05T02:00:00Z,26.4345,-81.9647,2.554,34.63,1111122 
SCCF RECON,ioos:station:SCCF:16:1,2008-11-05T03:00:00Z,26.4345,-81.9647,2.564,34.17,1111122 
SCCF RECON,ioos:station:SCCF:16:1,2008-11-05T04:00:00Z,26.4345,-81.9647,2.572,33.99,1111122 
SCCF RECON,ioos:station:SCCF:16:1,2008-11-05T05:00:00Z,26.4345,-81.9647,2.608,33.94,1111122 
SCCF RECON,ioos:station:SCCF:16:1,2008-11-05T06:00:00Z,26.4345,-81.9647,2.624,34.06,1111122 
SCCF RECON,ioos:station:SCCF:16:1,2008-11-05T07:00:00Z,26.4345,-81.9647,2.663,34.22,1111122 
SCCF RECON,ioos:station:SCCF:16:1,2008-11-05T08:00:00Z,26.4345,-81.9647,2.711,34.18,1111122 
SCCF RECON,ioos:station:SCCF:16:1,2008-11-05T09:00:00Z,26.4345,-81.9647,2.71,34.49,1111122 
SCCF RECON,ioos:station:SCCF:16:1,2008-11-05T10:00:00Z,26.4345,-81.9647,2.704,34.78,1111122 
SCCF RECON,ioos:station:SCCF:16:1,2008-11-05T11:00:00Z,26.4345,-81.9647,2.628,34.78,1111122 
SCCF RECON,ioos:station:SCCF:16:1,2008-11-05T12:00:00Z,26.4345,-81.9647,2.559,34.43,1111122 
SCCF RECON,ioos:station:SCCF:16:1,2008-11-05T13:00:00Z,26.4345,-81.9647,2.463,34.72,1111122 
SCCF RECON,ioos:station:SCCF:16:1,2008-11-05T14:00:00Z,26.4345,-81.9647,2.347,33.58,1111122 
SCCF RECON,ioos:station:SCCF:16:1,2008-11-05T15:00:00Z,26.4345,-81.9647,2.28,33.45,1111122 
SCCF RECON,ioos:station:SCCF:16:1,2008-11-05T16:00:00Z,26.4345,-81.9647,2.215,31.66,1111122 
SCCF RECON,ioos:station:SCCF:16:1,2008-11-05T17:00:00Z,26.4345,-81.9647,2.215,31.07,1111122 
SCCF RECON,ioos:station:SCCF:16:1,2008-11-05T18:00:00Z,26.4345,-81.9647,2.243,31.65,1111122 
SCCF RECON,ioos:station:SCCF:16:1,2008-11-05T19:00:00Z,26.4345,-81.9647,2.336,32.88,1111122 
SCCF RECON,ioos:station:SCCF:16:1,2008-11-05T20:00:00Z,26.4345,-81.9647,2.402,34.21,1111122 
SCCF RECON,ioos:station:SCCF:16:1,2008-11-05T21:00:00Z,26.4345,-81.9647,2.475,34.74,1111122 
SCCF RECON,ioos:station:SCCF:16:1,2008-11-05T22:00:00Z,26.4345,-81.9647,2.538,35.01,1111122 
SCCF RECON,ioos:station:SCCF:16:1,2008-11-05T23:00:00Z,26.4345,-81.9647,2.601,35.06,1111122 
SCCF RECON,ioos:station:SCCF:16:1,2008-11-06T00:00:00Z,26.4345,-81.9647,2.653,35.07,1111122 
SCCF RECON,ioos:station:SCCF:16:1,2008-11-06T01:00:00Z,26.4345,-81.9647,2.64,34.96,1111122 
SCCF RECON,ioos:station:SCCF:16:1,2008-11-06T02:00:00Z,26.4345,-81.9647,2.638,34.86,1111122 
SCCF RECON,ioos:station:SCCF:16:1,2008-11-06T03:00:00Z,26.4345,-81.9647,2.604,34.85,1111122 
SCCF RECON,ioos:station:SCCF:16:1,2008-11-06T04:00:00Z,26.4345,-81.9647,2.572,34.84,1111122 
SCCF RECON,ioos:station:SCCF:16:1,2008-11-06T05:00:00Z,26.4345,-81.9647,2.534,34.87,1111122 
SCCF RECON,ioos:station:SCCF:16:1,2008-11-06T06:00:00Z,26.4345,-81.9647,2.538,34.98,1111122 
SCCF RECON,ioos:station:SCCF:16:1,2008-11-06T07:00:00Z,26.4345,-81.9647,2.585,34.96,1111122 
SCCF RECON,ioos:station:SCCF:16:1,2008-11-06T08:00:00Z,26.4345,-81.9647,2.653,34.87,1111122 
SCCF RECON,ioos:station:SCCF:16:1,2008-11-06T09:00:00Z,26.4345,-81.9647,2.702,34.87,1111122 
SCCF RECON,ioos:station:SCCF:16:1,2008-11-06T10:00:00Z,26.4345,-81.9647,2.703,34.87,1111122 
SCCF RECON,ioos:station:SCCF:16:1,2008-11-06T11:00:00Z,26.4345,-81.9647,2.718,35.01,1111122 
SCCF RECON,ioos:station:SCCF:16:1,2008-11-06T12:00:00Z,26.4345,-81.9647,2.707,35.12,1111122 
SCCF RECON,ioos:station:SCCF:16:1,2008-11-06T13:00:00Z,26.4345,-81.9647,2.646,35.17,1111122 
SCCF RECON,ioos:station:SCCF:16:1,2008-11-06T14:00:00Z,26.4345,-81.9647,2.505,35.09,1111122 
SCCF RECON,ioos:station:SCCF:16:1,2008-11-06T15:00:00Z,26.4345,-81.9647,2.395,34.89,1111122 
SCCF RECON,ioos:station:SCCF:16:1,2008-11-06T16:00:00Z,26.4345,-81.9647,2.371,34.75,1111122 
SCCF RECON,ioos:station:SCCF:16:1,2008-11-06T17:00:00Z,26.4345,-81.9647,2.301,33.41,1111122 
SCCF RECON,ioos:station:SCCF:16:1,2008-11-06T18:00:00Z,26.4345,-81.9647,2.314,33.09,1111122 
SCCF RECON,ioos:station:SCCF:16:1,2008-11-06T19:00:00Z,26.4345,-81.9647,2.296,33.0,1111122 
SCCF RECON,ioos:station:SCCF:16:1,2008-11-06T20:00:00Z,26.4345,-81.9647,2.381,33.92,1111122 
SCCF RECON,ioos:station:SCCF:16:1,2008-11-06T21:00:00Z,26.4345,-81.9647,2.486,34.25,1111122 
SCCF RECON,ioos:station:SCCF:16:1,2008-11-06T22:00:00Z,26.4345,-81.9647,2.588,34.51,1111122 
SCCF RECON,ioos:station:SCCF:16:1,2008-11-06T23:00:00Z,26.4345,-81.9647,2.647,34.97,1111122 
SCCF RECON,ioos:station:SCCF:16:1,2008-11-07T00:00:00Z,26.4345,-81.9647,2.706,34.82,1111122 
SCCF RECON,ioos:station:SCCF:16:1,2008-11-07T01:00:00Z,26.4345,-81.9647,2.711,34.62,1111122 
SCCF RECON,ioos:station:SCCF:16:1,2008-11-07T02:00:00Z,26.4345,-81.9647,2.709,34.69,1111122 
SCCF RECON,ioos:station:SCCF:16:1,2008-11-07T03:00:00Z,26.4345,-81.9647,2.643,34.95,1111122 
SCCF RECON,ioos:station:SCCF:16:1,2008-11-07T04:00:00Z,26.4345,-81.9647,2.57,34.93,1111122 
SCCF RECON,ioos:station:SCCF:16:1,2008-11-07T05:00:00Z,26.4345,-81.9647,2.525,34.92,1111122 
SCCF RECON,ioos:station:SCCF:16:1,2008-11-07T06:00:00Z,26.4345,-81.9647,2.441,34.92,1111122 
SCCF RECON,ioos:station:SCCF:16:1,2008-11-07T07:00:00Z,26.4345,-81.9647,2.458,34.88,1111122 
SCCF RECON,ioos:station:SCCF:16:1,2008-11-07T08:00:00Z,26.4345,-81.9647,2.515,34.81,1111122 
SCCF RECON,ioos:station:SCCF:16:1,2008-11-07T09:00:00Z,26.4345,-81.9647,2.572,34.77,1111122 
SCCF RECON,ioos:station:SCCF:16:1,2008-11-07T10:00:00Z,26.4345,-81.9647,2.649,34.77,1111122 
SCCF RECON,ioos:station:SCCF:16:1,2008-11-07T11:00:00Z,26.4345,-81.9647,2.69,34.69,1111122 
SCCF RECON,ioos:station:SCCF:16:1,2008-11-07T12:00:00Z,26.4345,-81.9647,2.703,34.45,1111122 
SCCF RECON,ioos:station:SCCF:16:1,2008-11-07T13:00:00Z,26.4345,-81.9647,2.678,34.46,1111122 
SCCF RECON,ioos:station:SCCF:16:1,2008-11-07T14:00:00Z,26.4345,-81.9647,2.612,34.49,1111122 
SCCF RECON,ioos:station:SCCF:16:1,2008-11-07T15:00:00Z,26.4345,-81.9647,2.546,34.78,1111122 
SCCF RECON,ioos:station:SCCF:16:1,2008-11-07T16:00:00Z,26.4345,-81.9647,2.442,34.51,1111122 
SCCF RECON,ioos:station:SCCF:16:1,2008-11-07T17:00:00Z,26.4345,-81.9647,2.375,34.57,1111122 
SCCF RECON,ioos:station:SCCF:16:1,2008-11-07T18:00:00Z,26.4345,-81.9647,2.294,34.69,1111122 
SCCF RECON,ioos:station:SCCF:16:1,2008-11-07T19:00:00Z,26.4345,-81.9647,2.256,34.3,1111122 
SCCF RECON,ioos:station:SCCF:16:1,2008-11-07T20:00:00Z,26.4345,-81.9647,2.317,34.17,1111122 
SCCF RECON,ioos:station:SCCF:16:1,2008-11-07T21:00:00Z,26.4345,-81.9647,2.449,34.47,1111122 
SCCF RECON,ioos:station:SCCF:16:1,2008-11-07T22:00:00Z,26.4345,-81.9647,2.517,34.65,1111122 
SCCF RECON,ioos:station:SCCF:16:1,2008-11-07T23:00:00Z,26.4345,-81.9647,2.583,34.43,1111122 
SCCF RECON,ioos:station:SCCF:16:1,2008-11-08T00:00:00Z,26.4345,-81.9647,2.716,34.17,1111122 
SCCF RECON,ioos:station:SCCF:16:1,2008-11-08T01:00:00Z,26.4345,-81.9647,2.767,34.68,1111122 
SCCF RECON,ioos:station:SCCF:16:1,2008-11-08T02:00:00Z,26.4345,-81.9647,2.765,34.9,1111122 
SCCF RECON,ioos:station:SCCF:16:1,2008-11-08T03:00:00Z,26.4345,-81.9647,2.698,35.04,1111122 
SCCF RECON,ioos:station:SCCF:16:1,2008-11-08T04:00:00Z,26.4345,-81.9647,2.611,34.91,1111122 
SCCF RECON,ioos:station:SCCF:16:1,2008-11-08T05:00:00Z,26.4345,-81.9647,2.498,35.14,1111122 
SCCF RECON,ioos:station:SCCF:16:1,2008-11-08T06:00:00Z,26.4345,-81.9647,2.418,34.69,1111122 
SCCF RECON,ioos:station:SCCF:16:1,2008-11-08T07:00:00Z,26.4345,-81.9647,2.353,34.58,1111122 
SCCF RECON,ioos:station:SCCF:16:1,2008-11-08T08:00:00Z,26.4345,-81.9647,2.348,34.42,1111122 
SCCF RECON,ioos:station:SCCF:16:1,2008-11-08T09:00:00Z,26.4345,-81.9647,2.412,33.5,1111122 
SCCF RECON,ioos:station:SCCF:16:1,2008-11-08T10:00:00Z,26.4345,-81.9647,2.543,34.84,1111122 
SCCF RECON,ioos:station:SCCF:16:1,2008-11-08T11:00:00Z,26.4345,-81.9647,2.61,34.32,1111122 
SCCF RECON,ioos:station:SCCF:16:1,2008-11-08T12:00:00Z,26.4345,-81.9647,2.658,34.64,1111122 
SCCF RECON,ioos:station:SCCF:16:1,2008-11-08T13:00:00Z,26.4345,-81.9647,2.718,35.29,1111122 
SCCF RECON,ioos:station:SCCF:16:1,2008-11-08T14:00:00Z,26.4345,-81.9647,2.684,35.46,1111122 
SCCF RECON,ioos:station:SCCF:16:1,2008-11-08T15:00:00Z,26.4345,-81.9647,2.618,35.57,1111122 
SCCF RECON,ioos:station:SCCF:16:1,2008-11-08T16:00:00Z,26.4345,-81.9647,2.535,35.59,1111122 
SCCF RECON,ioos:station:SCCF:16:1,2008-11-08T17:00:00Z,26.4345,-81.9647,2.43,35.6,1111122 
SCCF RECON,ioos:station:SCCF:16:1,2008-11-08T18:00:00Z,26.4345,-81.9647,2.352,35.47,1111122 
SCCF RECON,ioos:station:SCCF:16:1,2008-11-08T19:00:00Z,26.4345,-81.9647,2.31,34.92,1111122 
SCCF RECON,ioos:station:SCCF:16:1,2008-11-08T20:00:00Z,26.4345,-81.9647,2.244,33.15,1111122 
SCCF RECON,ioos:station:SCCF:16:1,2008-11-08T21:00:00Z,26.4345,-81.9647,2.304,32.61,1111122 
SCCF RECON,ioos:station:SCCF:16:1,2008-11-08T22:00:00Z,26.4345,-81.9647,2.425,33.68,1111122 
SCCF RECON,ioos:station:SCCF:16:1,2008-11-08T23:00:00Z,26.4345,-81.9647,2.541,33.88,1111122 
SCCF RECON,ioos:station:SCCF:16:1,2008-11-09T00:00:00Z,26.4345,-81.9647,2.667,34.61,1111122 
SCCF RECON,ioos:station:SCCF:16:1,2008-11-09T01:00:00Z,26.4345,-81.9647,2.769,34.82,1111122 
SCCF RECON,ioos:station:SCCF:16:1,2008-11-09T02:00:00Z,26.4345,-81.9647,2.8,34.88,1111122 
SCCF RECON,ioos:station:SCCF:16:1,2008-11-09T03:00:00Z,26.4345,-81.9647,2.777,35.06,1111122 
SCCF RECON,ioos:station:SCCF:16:1,2008-11-09T04:00:00Z,26.4345,-81.9647,2.643,35.28,1111122 
SCCF RECON,ioos:station:SCCF:16:1,2008-11-09T05:00:00Z,26.4345,-81.9647,2.513,35.21,1111122 
SCCF RECON,ioos:station:SCCF:16:1,2008-11-09T06:00:00Z,26.4345,-81.9647,2.377,35.06,1111122 
SCCF RECON,ioos:station:SCCF:16:1,2008-11-09T07:00:00Z,26.4345,-81.9647,2.286,34.08,1111122 
SCCF RECON,ioos:station:SCCF:16:1,2008-11-09T08:00:00Z,26.4345,-81.9647,2.227,33.02,1111122 
SCCF RECON,ioos:station:SCCF:16:1,2008-11-09T09:00:00Z,26.4345,-81.9647,2.24,32.25,1111122 
SCCF RECON,ioos:station:SCCF:16:1,2008-11-09T10:00:00Z,26.4345,-81.9647,2.326,31.26,1111122 
SCCF RECON,ioos:station:SCCF:16:1,2008-11-09T11:00:00Z,26.4345,-81.9647,2.453,32.46,1111122 
SCCF RECON,ioos:station:SCCF:16:1,2008-11-09T12:00:00Z,26.4345,-81.9647,2.564,32.63,1111122 
SCCF RECON,ioos:station:SCCF:16:1,2008-11-09T13:00:00Z,26.4345,-81.9647,2.633,34.41,1111122 
SCCF RECON,ioos:station:SCCF:16:1,2008-11-09T14:00:00Z,26.4345,-81.9647,2.665,35.07,1111122 
SCCF RECON,ioos:station:SCCF:16:1,2008-11-09T15:00:00Z,26.4345,-81.9647,2.668,33.69,1111122 
SCCF RECON,ioos:station:SCCF:16:1,2008-11-09T16:00:00Z,26.4345,-81.9647,2.595,33.92,1111122 
SCCF RECON,ioos:station:SCCF:16:1,2008-11-09T17:00:00Z,26.4345,-81.9647,2.51,34.38,1111122 
SCCF RECON,ioos:station:SCCF:16:1,2008-11-09T18:00:00Z,26.4345,-81.9647,2.369,34.9,1111122 
SCCF RECON,ioos:station:SCCF:16:1,2008-11-09T19:00:00Z,26.4345,-81.9647,2.301,34.11,1111122 
SCCF RECON,ioos:station:SCCF:16:1,2008-11-09T20:00:00Z,26.4345,-81.9647,2.214,31.81,1111122 
SCCF RECON,ioos:station:SCCF:16:1,2008-11-09T21:00:00Z,26.4345,-81.9647,2.268,31.52,1111122 
SCCF RECON,ioos:station:SCCF:16:1,2008-11-09T22:00:00Z,26.4345,-81.9647,2.369,33.27,1111122 
SCCF RECON,ioos:station:SCCF:16:1,2008-11-09T23:00:00Z,26.4345,-81.9647,2.482,33.89,1111122 
SCCF RECON,ioos:station:SCCF:16:1,2008-11-10T00:00:00Z,26.4345,-81.9647,2.596,34.95,1111122 
SCCF RECON,ioos:station:SCCF:16:1,2008-11-10T01:00:00Z,26.4345,-81.9647,2.663,35.23,1111122 
SCCF RECON,ioos:station:SCCF:16:1,2008-11-10T02:00:00Z,26.4345,-81.9647,2.706,35.53,1111122 
SCCF RECON,ioos:station:SCCF:16:1,2008-11-10T03:00:00Z,26.4345,-81.9647,2.706,35.6,1111122 
SCCF RECON,ioos:station:SCCF:16:1,2008-11-10T04:00:00Z,26.4345,-81.9647,2.67,35.66,1111122 
SCCF RECON,ioos:station:SCCF:16:1,2008-11-10T05:00:00Z,26.4345,-81.9647,2.522,35.63,1111122 
SCCF RECON,ioos:station:SCCF:16:1,2008-11-10T06:00:00Z,26.4345,-81.9647,2.345,35.47,1111122 
SCCF RECON,ioos:station:SCCF:16:1,2008-11-10T07:00:00Z,26.4345,-81.9647,2.13,34.34,1111122 
SCCF RECON,ioos:station:SCCF:16:1,2008-11-10T08:00:00Z,26.4345,-81.9647,1.946,33.15,1111122 
SCCF RECON,ioos:station:SCCF:16:1,2008-11-10T09:00:00Z,26.4345,-81.9647,1.928,32.53,1111122 
SCCF RECON,ioos:station:SCCF:16:1,2008-11-10T10:00:00Z,26.4345,-81.9647,2.005,30.52,1111122 
SCCF RECON,ioos:station:SCCF:16:1,2008-11-10T11:00:00Z,26.4345,-81.9647,2.199,30.33,1111122 
SCCF RECON,ioos:station:SCCF:16:1,2008-11-10T12:00:00Z,26.4345,-81.9647,2.371,31.34,1111122 
SCCF RECON,ioos:station:SCCF:16:1,2008-11-10T13:00:00Z,26.4345,-81.9647,2.505,31.97,1111122 
SCCF RECON,ioos:station:SCCF:16:1,2008-11-10T14:00:00Z,26.4345,-81.9647,2.632,32.03,1111122 
SCCF RECON,ioos:station:SCCF:16:1,2008-11-10T15:00:00Z,26.4345,-81.9647,2.711,34.5,1111122 
SCCF RECON,ioos:station:SCCF:16:1,2008-11-10T16:00:00Z,26.4345,-81.9647,2.679,34.81,1111122 
SCCF RECON,ioos:station:SCCF:16:1,2008-11-10T17:00:00Z,26.4345,-81.9647,2.58,34.89,1111122 
SCCF RECON,ioos:station:SCCF:16:1,2008-11-10T18:00:00Z,26.4345,-81.9647,2.475,34.96,1111122 
SCCF RECON,ioos:station:SCCF:16:1,2008-11-10T19:00:00Z,26.4345,-81.9647,2.416,35.17,1111122 
SCCF RECON,ioos:station:SCCF:16:1,2008-11-10T20:00:00Z,26.4345,-81.9647,2.348,35.23,1111122 
SCCF RECON,ioos:station:SCCF:16:1,2008-11-10T21:00:00Z,26.4345,-81.9647,2.331,34.65,1111122 
SCCF RECON,ioos:station:SCCF:16:1,2008-11-10T22:00:00Z,26.4345,-81.9647,2.386,34.7,1111122 
SCCF RECON,ioos:station:SCCF:16:1,2008-11-10T23:00:00Z,26.4345,-81.9647,2.503,35.25,1111122 
SCCF RECON,ioos:station:SCCF:16:1,2008-11-11T00:00:00Z,26.4345,-81.9647,2.667,35.22,1111122 
SCCF RECON,ioos:station:SCCF:16:1,2008-11-11T01:00:00Z,26.4345,-81.9647,2.771,35.2,1111122 
SCCF RECON,ioos:station:SCCF:16:1,2008-11-11T02:00:00Z,26.4345,-81.9647,2.852,34.49,1111122 
SCCF RECON,ioos:station:SCCF:16:1,2008-11-11T03:00:00Z,26.4345,-81.9647,2.862,35.49,1111122 
SCCF RECON,ioos:station:SCCF:16:1,2008-11-11T04:00:00Z,26.4345,-81.9647,2.784,34.84,1111122 
SCCF RECON,ioos:station:SCCF:16:1,2008-11-11T05:00:00Z,26.4345,-81.9647,2.609,35.37,1111122 
SCCF RECON,ioos:station:SCCF:16:1,2008-11-11T06:00:00Z,26.4345,-81.9647,2.417,35.36,1111122 
SCCF RECON,ioos:station:SCCF:16:1,2008-11-11T07:00:00Z,26.4345,-81.9647,2.2,35.31,1111122 
SCCF RECON,ioos:station:SCCF:16:1,2008-11-11T08:00:00Z,26.4345,-81.9647,1.968,34.39,1111122 
SCCF RECON,ioos:station:SCCF:16:1,2008-11-11T09:00:00Z,26.4345,-81.9647,1.824,33.14,1111122 
SCCF RECON,ioos:station:SCCF:16:1,2008-11-11T10:00:00Z,26.4345,-81.9647,1.857,30.95,1111122 
SCCF RECON,ioos:station:SCCF:16:1,2008-11-11T11:00:00Z,26.4345,-81.9647,2.082,31.5,1111122 
SCCF RECON,ioos:station:SCCF:16:1,2008-11-11T12:00:00Z,26.4345,-81.9647,2.326,32.35,1111122 
SCCF RECON,ioos:station:SCCF:16:1,2008-11-11T13:00:00Z,26.4345,-81.9647,2.505,32.6,1111122 
SCCF RECON,ioos:station:SCCF:16:1,2008-11-11T14:00:00Z,26.4345,-81.9647,2.642,33.98,1111122 
SCCF RECON,ioos:station:SCCF:16:1,2008-11-11T15:00:00Z,26.4345,-81.9647,2.715,34.34,1111122 
SCCF RECON,ioos:station:SCCF:16:1,2008-11-11T16:00:00Z,26.4345,-81.9647,2.757,34.21,1111122 
SCCF RECON,ioos:station:SCCF:16:1,2008-11-11T17:00:00Z,26.4345,-81.9647,2.703,34.52,1111122 
SCCF RECON,ioos:station:SCCF:16:1,2008-11-11T18:00:00Z,26.4345,-81.9647,2.625,34.66,1111122 
SCCF RECON,ioos:station:SCCF:16:1,2008-11-11T19:00:00Z,26.4345,-81.9647,2.558,34.75,1111122 
SCCF RECON,ioos:station:SCCF:16:1,2008-11-11T20:00:00Z,26.4345,-81.9647,2.499,34.77,1111122 
SCCF RECON,ioos:station:SCCF:16:1,2008-11-11T21:00:00Z,26.4345,-81.9647,2.465,34.81,1111122 
SCCF RECON,ioos:station:SCCF:16:1,2008-11-11T22:00:00Z,26.4345,-81.9647,2.465,34.82,1111122 
SCCF RECON,ioos:station:SCCF:16:1,2008-11-11T23:00:00Z,26.4345,-81.9647,2.525,34.85,1111122 
SCCF RECON,ioos:station:SCCF:16:1,2008-11-12T00:00:00Z,26.4345,-81.9647,2.656,34.92,1111122 
SCCF RECON,ioos:station:SCCF:16:1,2008-11-12T01:00:00Z,26.4345,-81.9647,2.779,35.1,1111122 
SCCF RECON,ioos:station:SCCF:16:1,2008-11-12T02:00:00Z,26.4345,-81.9647,2.858,35.28,1111122 
SCCF RECON,ioos:station:SCCF:16:1,2008-11-12T03:00:00Z,26.4345,-81.9647,2.917,35.33,1111122 
SCCF RECON,ioos:station:SCCF:16:1,2008-11-12T04:00:00Z,26.4345,-81.9647,2.913,35.35,1111122 
SCCF RECON,ioos:station:SCCF:16:1,2008-11-12T05:00:00Z,26.4345,-81.9647,2.797,35.42,1111122 
SCCF RECON,ioos:station:SCCF:16:1,2008-11-12T06:00:00Z,26.4345,-81.9647,2.579,35.4,1111122 
SCCF RECON,ioos:station:SCCF:16:1,2008-11-12T07:00:00Z,26.4345,-81.9647,2.323,35.25,1111122 
SCCF RECON,ioos:station:SCCF:16:1,2008-11-12T08:00:00Z,26.4345,-81.9647,2.097,35.17,1111122 
SCCF RECON,ioos:station:SCCF:16:1,2008-11-12T09:00:00Z,26.4345,-81.9647,1.919,34.32,1111122 
SCCF RECON,ioos:station:SCCF:16:1,2008-11-12T10:00:00Z,26.4345,-81.9647,1.79,32.68,1111122 
SCCF RECON,ioos:station:SCCF:16:1,2008-11-12T11:00:00Z,26.4345,-81.9647,1.859,32.31,1111122 
SCCF RECON,ioos:station:SCCF:16:1,2008-11-12T12:00:00Z,26.4345,-81.9647,2.105,32.25,1111122 
SCCF RECON,ioos:station:SCCF:16:1,2008-11-12T13:00:00Z,26.4345,-81.9647,2.373,33.12,1111122 
SCCF RECON,ioos:station:SCCF:16:1,2008-11-12T14:00:00Z,26.4345,-81.9647,2.553,33.98,1111122 
SCCF RECON,ioos:station:SCCF:16:1,2008-11-12T15:00:00Z,26.4345,-81.9647,2.682,34.69,1111122 
SCCF RECON,ioos:station:SCCF:16:1,2008-11-12T16:00:00Z,26.4345,-81.9647,2.802,34.77,1111122 
SCCF RECON,ioos:station:SCCF:16:1,2008-11-12T17:00:00Z,26.4345,-81.9647,2.834,35.17,1111122 
SCCF RECON,ioos:station:SCCF:16:1,2008-11-12T18:00:00Z,26.4345,-81.9647,2.785,35.28,1111122 
SCCF RECON,ioos:station:SCCF:16:1,2008-11-12T19:00:00Z,26.4345,-81.9647,2.687,35.18,1111122 
SCCF RECON,ioos:station:SCCF:16:1,2008-11-12T20:00:00Z,26.4345,-81.9647,2.601,35.12,1111122 
SCCF RECON,ioos:station:SCCF:16:1,2008-11-12T21:00:00Z,26.4345,-81.9647,2.554,35.04,1111122 
SCCF RECON,ioos:station:SCCF:16:1,2008-11-12T22:00:00Z,26.4345,-81.9647,2.506,34.88,1111122 
SCCF RECON,ioos:station:SCCF:16:1,2008-11-12T23:00:00Z,26.4345,-81.9647,2.531,34.82,1111122 
SCCF RECON,ioos:station:SCCF:16:1,2008-11-13T00:00:00Z,26.4345,-81.9647,2.646,34.82,1111122 
SCCF RECON,ioos:station:SCCF:16:1,2008-11-13T01:00:00Z,26.4345,-81.9647,2.817,35.1,1111122 
SCCF RECON,ioos:station:SCCF:16:1,2008-11-13T02:00:00Z,26.4345,-81.9647,2.947,35.24,1111122 
SCCF RECON,ioos:station:SCCF:16:1,2008-11-13T03:00:00Z,26.4345,-81.9647,3.027,35.33,1111122 
SCCF RECON,ioos:station:SCCF:16:1,2008-11-13T04:00:00Z,26.4345,-81.9647,3.032,35.36,1111122 
SCCF RECON,ioos:station:SCCF:16:1,2008-11-13T05:00:00Z,26.4345,-81.9647,2.966,35.4,1111122 
SCCF RECON,ioos:station:SCCF:16:1,2008-11-13T06:00:00Z,26.4345,-81.9647,2.826,35.45,1111122 
SCCF RECON,ioos:station:SCCF:16:1,2008-11-13T07:00:00Z,26.4345,-81.9647,2.59,35.42,1111122 
SCCF RECON,ioos:station:SCCF:16:1,2008-11-13T08:00:00Z,26.4345,-81.9647,2.308,35.36,1111122 
SCCF RECON,ioos:station:SCCF:16:1,2008-11-13T09:00:00Z,26.4345,-81.9647,2.061,34.97,1111122 
SCCF RECON,ioos:station:SCCF:16:1,2008-11-13T10:00:00Z,26.4345,-81.9647,1.843,34.34,1111122 
SCCF RECON,ioos:station:SCCF:16:1,2008-11-13T11:00:00Z,26.4345,-81.9647,1.737,32.95,1111122 
SCCF RECON,ioos:station:SCCF:16:1,2008-11-13T12:00:00Z,26.4345,-81.9647,1.828,33.12,1111122 
SCCF RECON,ioos:station:SCCF:16:1,2008-11-13T13:00:00Z,26.4345,-81.9647,2.1,33.29,1111122 
SCCF RECON,ioos:station:SCCF:16:1,2008-11-13T14:00:00Z,26.4345,-81.9647,2.413,34.01,1111122 
SCCF RECON,ioos:station:SCCF:16:1,2008-11-13T15:00:00Z,26.4345,-81.9647,2.606,34.41,1111122 
SCCF RECON,ioos:station:SCCF:16:1,2008-11-13T16:00:00Z,26.4345,-81.9647,2.726,34.7,1111122 
SCCF RECON,ioos:station:SCCF:16:1,2008-11-13T17:00:00Z,26.4345,-81.9647,2.811,34.63,1111122 
SCCF RECON,ioos:station:SCCF:16:1,2008-11-13T18:00:00Z,26.4345,-81.9647,2.825,34.78,1111122 
SCCF RECON,ioos:station:SCCF:16:1,2008-11-13T19:00:00Z,26.4345,-81.9647,2.78,34.74,1111122 
SCCF RECON,ioos:station:SCCF:16:1,2008-11-13T20:00:00Z,26.4345,-81.9647,2.725,34.55,1111122 
SCCF RECON,ioos:station:SCCF:16:1,2008-11-13T21:00:00Z,26.4345,-81.9647,2.657,34.7,1111122 
SCCF RECON,ioos:station:SCCF:16:1,2008-11-13T22:00:00Z,26.4345,-81.9647,2.631,34.83,1111122 
SCCF RECON,ioos:station:SCCF:16:1,2008-11-13T23:00:00Z,26.4345,-81.9647,2.605,34.89,1111122 
SCCF RECON,ioos:station:SCCF:16:1,2008-11-14T00:00:00Z,26.4345,-81.9647,2.656,34.95,1111122 
SCCF RECON,ioos:station:SCCF:16:1,2008-11-14T01:00:00Z,26.4345,-81.9647,2.763,35.03,1111122 
SCCF RECON,ioos:station:SCCF:16:1,2008-11-14T02:00:00Z,26.4345,-81.9647,2.941,35.13,1111122 
SCCF RECON,ioos:station:SCCF:16:1,2008-11-14T03:00:00Z,26.4345,-81.9647,3.081,35.21,1111122 
SCCF RECON,ioos:station:SCCF:16:1,2008-11-14T04:00:00Z,26.4345,-81.9647,3.136,35.28,1111122 
SCCF RECON,ioos:station:SCCF:16:1,2008-11-14T05:00:00Z,26.4345,-81.9647,3.115,35.43,1111122 
SCCF RECON,ioos:station:SCCF:16:1,2008-11-14T06:00:00Z,26.4345,-81.9647,3.026,35.42,1111122 
SCCF RECON,ioos:station:SCCF:16:1,2008-11-14T07:00:00Z,26.4345,-81.9647,2.824,35.4,1111122 
SCCF RECON,ioos:station:SCCF:16:1,2008-11-14T08:00:00Z,26.4345,-81.9647,2.57,35.39,1111122 
SCCF RECON,ioos:station:SCCF:16:1,2008-11-14T09:00:00Z,26.4345,-81.9647,2.304,35.23,1111122 
SCCF RECON,ioos:station:SCCF:16:1,2008-11-14T10:00:00Z,26.4345,-81.9647,2.052,34.75,1111122 
SCCF RECON,ioos:station:SCCF:16:1,2008-11-14T11:00:00Z,26.4345,-81.9647,1.821,34.02,1111122 
SCCF RECON,ioos:station:SCCF:16:1,2008-11-14T12:00:00Z,26.4345,-81.9647,1.717,33.5,1111122 
SCCF RECON,ioos:station:SCCF:16:1,2008-11-14T13:00:00Z,26.4345,-81.9647,1.855,34.05,1111122 
SCCF RECON,ioos:station:SCCF:16:1,2008-11-14T14:00:00Z,26.4345,-81.9647,2.158,34.05,1111122 
SCCF RECON,ioos:station:SCCF:16:1,2008-11-14T15:00:00Z,26.4345,-81.9647,2.421,34.8,1111122 
SCCF RECON,ioos:station:SCCF:16:1,2008-11-14T16:00:00Z,26.4345,-81.9647,2.562,34.44,1111122 
SCCF RECON,ioos:station:SCCF:16:1,2008-11-14T17:00:00Z,26.4345,-81.9647,2.659,34.92,1111122 
SCCF RECON,ioos:station:SCCF:16:1,2008-11-14T18:00:00Z,26.4345,-81.9647,2.747,34.91,1111122 
SCCF RECON,ioos:station:SCCF:16:1,2008-11-14T19:00:00Z,26.4345,-81.9647,2.761,34.6,1111122 
SCCF RECON,ioos:station:SCCF:16:1,2008-11-14T20:00:00Z,26.4345,-81.9647,2.704,34.51,1111122 
SCCF RECON,ioos:station:SCCF:16:1,2008-11-14T21:00:00Z,26.4345,-81.9647,2.617,34.55,1111122 
SCCF RECON,ioos:station:SCCF:16:1,2008-11-14T22:00:00Z,26.4345,-81.9647,2.577,34.45,1111122 
SCCF RECON,ioos:station:SCCF:16:1,2008-11-14T23:00:00Z,26.4345,-81.9647,2.557,34.49,1111122 
SCCF RECON,ioos:station:SCCF:16:1,2008-11-15T00:00:00Z,26.4345,-81.9647,2.561,34.55,1111122 
SCCF RECON,ioos:station:SCCF:16:1,2008-11-15T01:00:00Z,26.4345,-81.9647,2.635,34.59,1111122 
SCCF RECON,ioos:station:SCCF:16:1,2008-11-15T02:00:00Z,26.4345,-81.9647,2.785,34.77,1111122 
SCCF RECON,ioos:station:SCCF:16:1,2008-11-15T03:00:00Z,26.4345,-81.9647,2.944,34.75,1111122 
SCCF RECON,ioos:station:SCCF:16:1,2008-11-15T04:00:00Z,26.4345,-81.9647,3.022,34.9,1111122 
SCCF RECON,ioos:station:SCCF:16:1,2008-11-15T05:00:00Z,26.4345,-81.9647,3.044,35.03,1111122 
SCCF RECON,ioos:station:SCCF:16:1,2008-11-15T06:00:00Z,26.4345,-81.9647,3.026,35.2,1111122 
SCCF RECON,ioos:station:SCCF:16:1,2008-11-15T07:00:00Z,26.4345,-81.9647,2.909,35.24,1111122 
SCCF RECON,ioos:station:SCCF:16:1,2008-11-15T08:00:00Z,26.4345,-81.9647,2.708,35.19,1111122 
SCCF RECON,ioos:station:SCCF:16:1,2008-11-15T09:00:00Z,26.4345,-81.9647,2.447,34.98,1111122 
SCCF RECON,ioos:station:SCCF:16:1,2008-11-15T10:00:00Z,26.4345,-81.9647,2.173,34.75,1111122 
SCCF RECON,ioos:station:SCCF:16:1,2008-11-15T11:00:00Z,26.4345,-81.9647,1.919,34.58,1111122 